Find Starlink 5403

NORAD ID: 54862 Int'l Des: 2022-177 Owner: SPXS Country: US Constellation: starlink operational
LEOCIRCULAR

リアルタイム位置

3D地球を読み込み中...

Starlink 5403について

説明を読み込み中...

次回通過

Passes for default location (London). Set your location on the main map for personalized predictions.

高度履歴

Loading altitude history...

軌道要素

1 54862U 22177AU 26120.23012192 .00000842 00000-0 41057-4 0 9990
2 54862 43.0021 190.4692 0001237 275.6832 84.3878 15.26743104184974
Epoch: Apr 30, 2026 • Age: 11 hours

現在のステータス

高度 497.3 km
速度 7.62 km/s
衛星直下点 -41.15°S, 22.64°W
打ち上げ日 Dec 28, 2022
運用期間 3.3 years
タイプ internet

技術仕様

分類 Payload
質量 305.00 kg
乾燥質量 290.00 kg
総質量 305.00 kg
長さ 0.20 m
直径 2.80 m
スパン 9.00 m
形状 Box + pan
製造者 SPXS
バスタイプ Starlink
フェーズステータス In Orbit
所有者/国 SPXS/US

Most Searched